Погода в Ставрополе

Погода в Ставрополе : погода сейчас, прогноз погоды и архив. Всё, что Вы хотите узнать о погоде в Ставрополе!

Поиск расширенной информации на нашем сайте:

Другие новости

Новости СМИ2

Главная страница сайта

Новости сайта

03.07.2017

Напоминаем, что на нашем специализированном сайте Метеоцентр.Азия вы можете получить высокодетализированные автоматические прогнозы погоды по пунктам России, СНГ и мира в авиационном формате (включающие направление и скорость ветра, видимость, явления погоды, количество и форму облачности, нижнюю и верхнюю границу облачности).


Погода в Ставрополе - сегодня

Время (UTC), дата Ветер
(°,м/с) 
Видим.   Явления Облачность Т
(°С)
Тd
(°С)
f(%) Тe
(°С)
Pmin
(гПа)
dP
(гПа)
Po
(мм)
O2
(г/м3)
Тmin Tmax R s Состояние
почвы
00 12.11.18 090 (В) 8-11{12}  10 км    10/10 200 м 
[St]
-2.2 -3.2 93 -7  1031.8  -0.3  731  297           
03 12.11.18 090 (В) 20000 м    10/10 200 м 
[St]
-2.5 -3.3 94 -8  1031.8  0.1  731  298  -2.5         
06 12.11.18 090 (В) 8-10{11}  10 км    10/10 100 м 
[St]
-2.7 -3.5 94 -8  1032.6  0.7  732  298  -2.8         
09 12.11.18 110 (В) 8-12{12}  20000 м  в посл. час снег  10/10 200 м 
[St]
-1.4 -3.1 88 -6  1032.3  -0.1  732  297           
12 12.11.18 110 (В) 9-12{14}  10 км  слаб. снег  10/10 200 м 
[St]
-1.6 -2.9 91 -7  1031.7  -0.6  731  297           
15 12.11.18 100 (В) 4000 м  слаб. снег{дождь}  10/10 200 м 
[Ns]
-2.3 -3 95 -7  1032.1  0.3  732  298    -1.2  0.4     
18 12.11.18 090 (В) 8-10{11}  0300 м  слаб. снег{туман} [диам. гололёда 1 мм]  ?/?  
-3.5 -4.2 95 -8  1031.8  -0.5  731  299           
21 12.11.18 090 (В) 6{10}  1000 м  слаб. снег{туман} [диам. сложн. отлож. 3 мм]  10/10 100 м 
[Frnb|Ns]
-4 -4.7 95 -8  1031.5  -0.5  731  299           
00 13.11.18 090 (В) 1000 м  дымка{снег} [диам. сложн. отлож. 3 мм]  10/10 100 м 
[St]
-3.7 -4.4 95 -8  1030.6  -0.8  730  299           
03 13.11.18 090 (В) 0200 м  переохл. туман  ?/?  
-2.9 -3.5 96 -6  1029.6  -0.8  730  297  -4.3    0.8  <0.5  равномерный
сухой снег
100% 
06 13.11.18 090 (В) 0200 м  переохл. туман [диам. сложн. отлож. 8 мм]  ?/?  
-1.2 -1.7 96 -4  1029.3  -0.1  730  295           
09 13.11.18 040 (СВ) 0500 м  переохл. туман [диам. сложн. отлож. 8 мм]  ?/?  
-0.1 -0.6 96 -2  1029.4  0.3  730  294           
12 13.11.18 090 (В) 9-13{13}  1000 м  дымка{туман}  10/10 100 м 
[St]
+2.7 +2.2 96 -1  1028.3  -0.4  730  291           
15 13.11.18 080 (В) 9-11  0050 м  туман{морось}  ?/?  
+0.9 +0.5 97 -3  1029.9  1.1  730  293    +2.8  0.5     
18 13.11.18 080 (В) 10-13{14}  0200 м  туман{морось} [диам. гололёда 0 мм]  ?/?  
-0.3 -0.8 96 -5  1030.3  1.1  731  295           
21 13.11.18 100 (В) 4{13}  0200 м  туман  ?/?  
-0.9 -1.4 96 -3  1030.2  -0.3  730  295        мокрый или
старый снег
50-90% 
00 14.11.18 100 (В) 0200 м  туман [диам. гололёда 4 мм]  ?/?  
-1.2 -1.7 96 -3  1029.4  -0.8  730  295           
03 14.11.18 100 (В) 0500 м  туман  ?/?  
-0.9 -1.4 96 -2  1028.8  -0.5  729  295  -1.2         
06 14.11.18 090 (В) 0500 м  туман [диам. гололёда 6 мм]  ?/?  
-0.8 -1.3 96 -3  1029  0.3  730  295           
09 14.11.18 090 (В) 9-11{13}  0200 м  туман [диам. гололёда 7 мм]  ?/?  
-0.2 -0.7 96 -5  1027.2  -1.6  728  294           
12 14.11.18 080 (В) 8-10{13}  0200 м  туман  ?/?  
+0.5 -0 96 -4  1026.1  -0.9  728  293           
18 14.11.18 090 (В) 10-14{15}  10 км  {туман}  10/10 300 м 
[St]
+0.6 -0.1 95 -4  1024.8  -0.7  727  292           
21 14.11.18 090 (В) 9-12{15}  1000 м  дымка  10/10 100 м 
[St]
-1.3 -1.7 97 -6  1024.3  -0.8  726  294           
00 15.11.18 090 (В) 8-11{12}  0500 м  туман [диам. гололёда 1 мм]  ?/?  
-1.5 -1.9 97 -6  1022.8  -1.4  725  294           
03 15.11.18 090 (В) 0200 м  туман  ?/?  
-1.1 -1.5 97 -4  1022.1  -0.6  725  293  -1.5         
Время (UTC), дата Ветер
(°,м/с) 
Видим.   Явления Облачность Т
(°С)
Тd
(°С)
f(%) Тe
(°С)
Pmin
(гПа)
dP
(гПа)
Po
(мм)
O2
(г/м3)
Тmin Tmax R s Состояние
почвы

Для получения пояснительной информации подведите курсор к названию столбца.

ПОГОДА в Ставрополе - архив

Всё, что Вы хотите узнать о погоде в Ставрополе - удобно и подробно!

Выберите нужную дату (начиная с 1 января 2015* года) и нажмите кнопку "Найти".
Будут отображены архивные сводки погоды по пункту Ставрополь, начиная с указанной даты.


Отображать данные в формате CSV (для использования в таблицах Excel)


Внимание! Наш архив погоды предназначен исключительно для личного некоммерческого использования в познавательных целях. Если Вам необходимы официальные справки о состоянии погоды (для производственных, юридических, коммерческих и т.п. целей), обращайтесь в органы Росгидромета.

*Примечание: данная дата относится к архиву по метеостанциям СССР (Россия, СНГ, Балтия).
Архив по метеостанциям Зарубежной Европы и Азии (кроме Китая) хранится 10 дней, по другим регионам земного шара (Китай, Африка, Америка, Австралия, Океания) - 1 день.

Ставрополь - район местоположения метеостанции


Название, широта, долгота, высота метеостанции:
Ставрополь 45.1°ш. 42.1°д. 452 м над ур. моря [Российская Федерация]

Дополнительная информация

В oтличие oт бoльшинства пoгoдных сайтoв мы публикуем пoдрoбную метеoинфoрмацию в детальнoм прoфессиoнальнoм фoрмате.

Характеристики температуры и влажнoсти вoздуха измеряются на высoте 2 м в тени вдали oт зданий и деревьев.
Скoрoсть ветра измеряется на высoте 10 м (на урoвне рoста челoвека скoрoсть ветра ниже в 1.5-2 раза). Если метеoстанция нахoдится в гoрoде или в лесу, тo скoрoсть ветра занижена на 2-4 м/с пo сравнению с oткрытым местoм. Скoрoсть ветра над акватoриями крупных рек и oзёр, а также на вершинах хoлмoв на 2-5 м/с выше, чем в oбычных услoвиях.
Атмoсфернoе давление в разных тoчках местнoсти мoжет значительнo oтличаться oт давления на метеoстанции, в зависимoсти oт услoвий рельефа (при пoдъёме на 10 м давление пoнижается примернo на 1 мм рт.ст.).